User: anonymous   Login
Location: Unspecified
(0.0000°N, 0.0000°E)
Time: 00:09:37
(UTC+01:00)
Language:

ARIANE 5 R/B - Orbit

View from above orbital plane
View from above orbital plane
View from above satellite
View from above satellite

Ground track
Ground track

The orbit data is extracted from the following two-line orbital elements,

1 27510U 02040C   18051.52564729 -.00000147  00000-0 -92397-3 0  9993
2 27510   5.0626 109.0860 7164324 169.1792 356.6399  2.27203785128550
Epoch (UTC): 20 February 2018 12:36:55
Eccentricity: 0.7164324
inclination: 5.0626°
perigee height: 552 km
apogee height: 35573 km
right ascension of ascending node: 109.0860°
argument of perigee: 169.1792°
revolutions per day: 2.27203785
mean anomaly at epoch: 356.6399°
orbit number at epoch: 12855

The dashed part of the orbit path shows where the satellite is in the earth's shadow,  

DLR